CZ-6A DEB

Satellite information

Favourite Embed

Satellite Type and Status

DEBRISIN ORBIT

Key statistics

Satellite CZ-6A DEB at a glance.

Uptime

1128

Days in orbit

Revolutions

≈ 14.1

Per day

Orbit

SSO

Sun Synchronous Orbit

Inclination

98.8

Latest

Satellite identification and parameters

Extended collection of information and parameters for CZ-6A DEB.

Object identification

Identified? True

Debris? True

Object name: CZ-6A DEB

International designator: 2022-151AGN

Object number (NORAD): 56662

Object ID (CCSDS): 56662

Country: PEOPLES REPUBLIC OF CHINA (PRC)

Current information (Y/N): Y

RCS size: SMALL

Orbital parameters

Period: 102.151 minutes

Inclination: 98.8381 deg

SMA: 7238.621 km

Apoapsis: 909.309 km

Periapsis: 811.663 km

RAAN: 342.7399 deg

Eccentricy: 0.00674481

Argument of periapsis: 183.0637 deg

Mean anomaly: 177.013 deg

Mean motion: 14.09675044 rev/day

Mean motion (dot): 0.00000662 rev/day2

B* drag term: 0.00039394098 1/REarth

Two-line elements (TLE)

Creation date: Dec. 12, 2025, 10:14 a.m.

Reference frame: TEME

Reference center: EARTH

Epoch: Dec. 12, 2025, 6:09 a.m. UTC

TLE line 0: 0 CZ-6A DEB

TLE line 1: 1 56662U 22151AGN 25346.25667245 .00000662 00000-0 39394-3 0 9998

TLE line 2: 2 56662 98.8381 342.7399 0067448 183.0637 177.0130 14.09675044140518

Live tracking on map

Real-time ground track for satellite CZ-6A DEB.

In-orbit conjunctions

A list of the most updated potential collisions computed for object CZ-6A DEB.

Target Orbit TCA Probability of collision Miss distance Type
FENGYUN 1C DEB SSO 2025-11-09 07:21:52 0.0008964767 34.0 (m) DEBRIS
METEOR 2-2 LEO 2025-10-14 12:09:31 0.0009552741 652.0 (m) PAYLOAD
CZ-6A DEB LEO 2025-01-14 22:12:22 0.0002366914 665.0 (m) DEBRIS

Associated space launch

Chinese satellite reported for atmospheric/ocean/environmental/spatial parameter research purposes, details TBD.

CZ-6A DEB was lifted into orbit during the mission ‘Long March 6A | Yunhai 3’, on board a Long March 6A space rocket.

The launch took place on Nov. 11, 2022, 10:52 p.m. from Launch Complex 9A.

For more information about the launch, click the button.

Launch to space Long March 6A | Yunhai 3
Long March 6A | Yunhai 3

Agency: N/A

Status: Launch Successful

Launch date: Nov. 11, 2022, 10:52 p.m. UTC

Rocket: Long March 6A

Launch pad: Launch Complex 9A

Location: Taiyuan Satellite Launch Center, People's Republic of China

...

Latest news about this satellite

There are no fresh news available about this satellite. Check back as we update our databases every day.


Newsletter sign-up

Weekly statistics, charts and insights to help you stay on top of the space industry.